West Chicago, IL

6:18 PM CST on February 06, 2016 (GMT -0600)
Du Page

Weather History for KDPA - April, 2014

Change the Weather History Date:

Tuesday, April 8, 2014

  Actual Average Record
Temperature  
Mean Temperature 49 °F 47 °F  
Max Temperature 62 °F 58 °F 77 °F (2001)
Min Temperature 36 °F 35 °F 26 °F (2003)
Degree Days  
Heating Degree Days 16 18  
Month to date heating degree days 185 157  
Since 1 July heating degree days 7051 5748  
Cooling Degree Days 0 0  
Month to date cooling degree days 0 0  
Year to date cooling degree days 0 0  
Moisture  
Dew Point 38 °F    
Average Humidity 65    
Maximum Humidity 90    
Minimum Humidity 36    
Precipitation  
Precipitation T in 0.09 in 1.06 in (1999)
Month to date precipitation 0.49 0.72  
Year to date precipitation 2.16 5.81  
Sea Level Pressure  
Sea Level Pressure 29.77 in    
Wind  
Wind Speed 9 mph (NNW)    
Max Wind Speed 21 mph    
Max Gust Speed 26 mph    
Visibility 9 miles    
Events Rain    
T = Trace of Precipitation, MM = Missing Value Source: NWS Daily Summary

Daily Weather History Graph

Daily Weather History Graph

Search for Another Location

Airport or City:

Trip Planner

Search our weather history database for the weather conditions in past years. The results will help you decide how hot, cold, wet, or windy it might be!

Date:

Astronomy

Apr. 08, 2014 Rise Set
Actual Time 6:24 AM CDT 7:26 PM CDT
Civil Twilight 5:55 AM CDT 7:54 PM CDT
Nautical Twilight 5:21 AM CDT 8:28 PM CDT
Astronomical Twilight 4:46 AM CDT 9:04 PM CDT
Moon 1:14 PM CDT (4/8) 2:42 AM CDT (4/8)
Length of Visible Light 13h 59m
Length of Day
13h 02m
Waxing Gibbous, 63% of the Moon is Illuminated
Apr 8
Waxing Gibbous
Apr 15
Full
Apr 22
Last Quarter
Apr 29
New
May 6
First Quarter

Hourly Weather History & Observations

Time (CDT) Temp. Windchill Dew Point Humidity Pressure Visibility Wind Dir Wind Speed Gust Speed Precip Events Conditions
12:52 AM 46.9 °F - 28.9 °F 50% 29.65 in 10.0 mi West 8.1 mph - N/A   Overcast
1:52 AM 46.9 °F - 36.0 °F 66% 29.65 in 10.0 mi WNW 8.1 mph - 0.00 in Rain Light Rain
2:52 AM 46.9 °F - 44.1 °F 90% 29.64 in 7.0 mi WNW 8.1 mph - 0.00 in Rain Light Rain
3:28 AM 46.9 °F - 44.1 °F 90% 29.64 in 6.0 mi NW 9.2 mph - 0.00 in   Overcast
3:52 AM 46.9 °F - 44.1 °F 90% 29.65 in 6.0 mi NW 9.2 mph - 0.00 in Rain Light Rain
4:52 AM 46.9 °F - 44.1 °F 90% 29.66 in 5.0 mi NNW 10.4 mph - 0.00 in Rain Light Rain
5:52 AM 46.0 °F 41.4 °F 43.0 °F 89% 29.68 in 7.0 mi NW 9.2 mph - 0.00 in   Overcast
6:52 AM 45.0 °F 40.1 °F 41.0 °F 86% 29.70 in 7.0 mi NW 9.2 mph - N/A   Mostly Cloudy
8:52 AM 46.0 °F 41.0 °F 41.0 °F 83% 29.74 in 7.0 mi NNW 10.4 mph - N/A   Mostly Cloudy
9:52 AM 48.9 °F - 42.1 °F 77% 29.75 in 7.0 mi North 11.5 mph - N/A   Mostly Cloudy
10:11 AM 51.1 °F - 42.1 °F 71% 29.75 in 8.0 mi North 12.7 mph - N/A   Mostly Cloudy
10:27 AM 51.1 °F - 41.0 °F 68% 29.76 in 8.0 mi North 12.7 mph - N/A   Scattered Clouds
10:52 AM 54.0 °F - 39.9 °F 59% 29.77 in 9.0 mi NNW 11.5 mph - N/A   Clear
11:52 AM 55.9 °F - 39.0 °F 53% 29.78 in 10.0 mi North 10.4 mph 19.6 mph N/A   Partly Cloudy
12:52 PM 57.0 °F - 37.0 °F 47% 29.77 in 10.0 mi NNW 12.7 mph 19.6 mph N/A   Mostly Cloudy
1:52 PM 59.0 °F - 35.1 °F 41% 29.77 in 10.0 mi NNW 13.8 mph 19.6 mph N/A   Partly Cloudy
2:52 PM 60.1 °F - 33.1 °F 36% 29.78 in 10.0 mi NNW 17.3 mph 24.2 mph N/A   Mostly Cloudy
3:52 PM 59.0 °F - 33.1 °F 38% 29.78 in 10.0 mi NNW 12.7 mph - N/A   Overcast
4:52 PM 57.9 °F - 33.1 °F 39% 29.80 in 10.0 mi NNW 12.7 mph - 0.00 in   Overcast
5:50 PM 55.4 °F - 33.8 °F 44% 29.81 in 10.0 mi NE 13.8 mph - N/A   Mostly Cloudy
5:52 PM 55.9 °F - 35.1 °F 45% 29.82 in 10.0 mi NE 15.0 mph - N/A   Mostly Cloudy
5:59 PM 55.9 °F - 35.1 °F 45% 29.82 in 10.0 mi NE 11.5 mph - N/A   Mostly Cloudy
6:52 PM 54.0 °F - 35.1 °F 49% 29.84 in 10.0 mi ENE 6.9 mph - N/A   Clear
7:52 PM 48.9 °F - 35.1 °F 59% 29.87 in 10.0 mi East 3.5 mph - N/A   Partly Cloudy
8:52 PM 46.0 °F 43.1 °F 35.1 °F 66% 29.90 in 10.0 mi ENE 5.8 mph - N/A   Partly Cloudy
9:52 PM 42.1 °F - 35.1 °F 76% 29.92 in 10.0 mi Calm Calm - N/A   Clear
10:52 PM 37.9 °F - 34.0 °F 86% 29.92 in 7.0 mi Calm Calm - N/A   Clear
11:52 PM 37.9 °F - 33.1 °F 83% 29.93 in 8.0 mi Calm Calm - N/A   Mostly Cloudy